GW1539 Weather Reports


time (UTC)temp
C
wind
direction
speed
KPH
gust
KPH
rain 1hr
cm
rain 24hr
cm
rain mn
cm
humidity
%
barometer
mb
20260906111600 25 249 4.8 8.0 0.00 0.00 0.00 62 1021.7
20260906110032 25 247 3.2 8.0 0.00 0.00 0.00 60 1021.7
20260906104533 24 263 0.0 6.4 0.00 0.00 0.00 64 1021.7
20260906101535 23 268 1.6 9.7 0.00 0.00 0.00 66 1021.8
20260906094541 22 246 0.0 12.9 0.00 0.00 0.00 69 1022.2
20260906091544 21 234 4.8 11.3 0.00 0.00 0.00 69 1022.4
20260906084540 21 228 1.6 8.0 0.00 0.00 0.00 72 1022.4
20260906083039 20 228 1.6 6.4 0.00 0.00 0.00 73 1022.4
20260906081535 20 228 0.0 0.0 0.00 0.00 0.00 74 1022.4
20260906080035 20 228 0.0 0.0 0.00 0.00 0.00 75 1022.5
20260906073039 19 228 0.0 0.0 0.00 0.00 0.00 81 1022.5
20260906071526 17 228 0.0 0.0 0.00 0.00 0.00 87 1022.2
20260906064533 16 228 0.0 0.0 0.00 0.00 0.00 95 1022.3
20260906061538 14 228 0.0 0.0 0.00 0.00 0.00 96 1022.0
20260906054544 13 228 0.0 0.0 0.00 0.00 0.00 95 1021.9
20260906051553 13 228 0.0 0.0 0.00 0.00 0.00 95 1021.5
20260906044538 13 228 0.0 0.0 0.00 0.00 0.00 94 1021.2
20260906043044 13 228 0.0 0.0 0.00 0.00 0.00 94 1021.1
20260906040041 13 228 0.0 0.0 0.00 0.00 0.00 94 1020.9
20260906034532 13 228 0.0 0.0 0.00 0.00 0.00 94 1020.8
20260906031531 13 228 0.0 0.0 0.00 0.00 0.00 94 1020.7
20260906024538 13 228 0.0 0.0 0.00 0.00 0.00 94 1020.6
20260906021540 14 228 0.0 0.0 0.00 0.00 0.00 94 1020.7
20260906020048 14 228 0.0 0.0 0.00 0.00 0.00 93 1020.5
20260906013825 14 228 0.0 0.0 0.00 0.00 0.00 92 1020.5
20260906011544 15 228 0.0 0.0 0.00 0.00 0.00 92 1020.4
20260906004531 15 228 0.0 0.0 0.00 0.00 0.00 91 1020.4
20260906001527 16 228 0.0 0.0 0.00 0.00 0.00 91 1020.4
20260905234535 16 228 0.0 0.0 0.00 0.00 0.00 90 1020.3
20260905231535 17 228 0.0 0.0 0.00 0.00 0.00 88 1020.3
20260905224528 17 228 0.0 0.0 0.00 0.00 0.00 88 1020.1
20260905223026 17 228 0.0 0.0 0.00 0.00 0.00 88 1020.1
20260905220108 17 228 0.0 0.0 0.00 0.00 0.00 88 1019.9
20260905214532 17 228 0.0 0.0 0.00 0.00 0.00 91 1019.8
20260905213026 16 228 0.0 0.0 0.00 0.00 0.00 91 1019.7
20260905210046 17 228 0.0 0.0 0.00 0.00 0.00 90 1019.4
20260905203031 17 228 0.0 0.0 0.00 0.00 0.00 88 1019.3
20260905201529 18 228 0.0 1.6 0.00 0.00 0.00 87 1019.1
20260905194533 18 228 0.0 0.0 0.00 0.00 0.00 88 1019.0
20260905191534 18 228 0.0 0.0 0.00 0.00 0.00 87 1018.5
20260905184555 19 228 0.0 0.0 0.00 0.00 0.00 86 1018.1
20260905183037 20 228 0.0 0.0 0.00 0.00 0.00 84 1017.9
20260905180042 20 228 0.0 0.0 0.00 0.00 0.00 81 1017.5
20260905173033 21 228 0.0 0.0 0.00 0.00 0.00 79 1017.1
20260905171529 22 228 0.0 1.6 0.00 0.00 0.00 77 1016.9
20260905164536 23 228 0.0 4.8 0.00 0.00 0.00 73 1016.5
20260905163032 23 228 1.6 6.4 0.00 0.00 0.00 70 1016.3
20260905160109 25 230 1.6 9.7 0.00 0.00 0.00 65 1016.1
20260905153041 26 232 1.6 8.0 0.00 0.00 0.00 63 1015.9
20260905150043 25 355 1.6 6.4 0.00 0.00 0.00 66 1015.8
20260905144531 25 13 0.0 6.4 0.00 0.00 0.00 67 1015.8
20260905143035 25 13 3.2 8.0 0.00 0.00 0.00 65 1015.8
20260905140032 25 249 1.6 6.4 0.00 0.00 0.00 65 1016.0
20260905133047 26 267 6.4 12.9 0.00 0.00 0.00 61 1016.0
20260905130036 26 259 3.2 16.1 0.00 0.00 0.00 61 1016.1
20260905124533 26 216 6.4 16.1 0.00 0.00 0.00 62 1016.1
20260905121543 25 228 6.4 12.9 0.00 0.00 0.00 63 1016.3
20260905114542 25 245 6.4 17.7 0.00 0.00 0.00 64 1016.4